Location: Newark
(46.9000°N, 28.3500°E)
Time: 22:15:04
(UTC+00:00)

Explorer 7 - Pass Details

Date: 30 August 2019
Orbit: 485 x 680 km, 50.3° (Epoch: 19 September)

Event Time Altitude Azimuth Distance (km) Brightness Sun altitude
Rises 08:29:29 0° 285° (WNW) 3,006 10.3 46.8°
Reaches altitude 10° 08:31:55 10° 289° (WNW) 2,073 9.5 47.0°
Maximum altitude 08:36:40 62° 10° (N) 715 7.8 47.5°
Drops below altitude 10° 08:41:10 10° 92° (E) 1,962 10.1 47.9°
Sets 08:43:25 0° 96° (E) 2,832 10.8 48.1°
